Volver al catálogo

COSMOS 2251 DEB

ActivoLEO
NORAD 35446·DEBRIS·🇷🇺 Russia

Lanzado Jun 16, 1993 desde Plesetsk Cosmodrome

Loading…

Próximos Pases (próximas 24 horas)

TLE

ActualizadoSource: Space-Track

Época: Sep 14, 2026, 10:29 UTC

1 35446U 93036AKQ 26257.43730722  .00000187  00000-0  48933-4 0  9990
2 35446  74.0475 156.7906 0076226 205.8976 153.8365 14.54854270920175

Sigue COSMOS 2251 DEB en tiempo real con AllMySat

Download on the App Store